Regional Weather Roundup
Issued by NWS

Home | Current Version | Previous Version | Text Only | Print | Product List | Glossary Off
Versions: 1 2 3 4 5 6 7 8 9 10 11 12 13 14 15 16 17 18 19 20 21 22 23 24 25 26 27 28 29 30 31 32 33 34 35 36 37 38 39 40 41 42 43 44 45 46 47 48 49 50

000
ASUS43 KMKX 282221
RWRWI

WISCONSIN REGIONAL WEATHER ROUNDUP
NATIONAL WEATHER SERVICE MILWAUKEE/SULLIVAN WI
500 PM CDT TUE JUL 28 2015

NOTE: "FAIR" INDICATES FEW OR NO CLOUDS BELOW 12,000 FEET WITH NO
SIGNIFICANT WEATHER AND/OR OBSTRUCTIONS TO VISIBILITY.

WIZ001-002-006>008-014>016-023>028-282300-
NORTHWEST WISCONSIN

CITY           SKY/WX    TMP DP  RH WIND       PRES   REMARKS
SUPERIOR ARPT  PTSUNNY   85  69  59 SW9G18    29.75F HX  88
ASHLAND        MOSUNNY   84  69  60 SW13G23   29.79F HX  88
HAYWARD        PTSUNNY   83  68  60 S14       29.83S HX  86
SIREN          CLOUDY    82  68  63 SW8       29.81S HX  84
CUMBERLAND     CLOUDY    79  68  69 SW9       29.84S HX  81
RICE LAKE      PTSUNNY   82  70  67 S5        29.85S HX  86
CHETEK         MOSUNNY   83  73  70 S8        29.84S HX  89
LADYSMITH      MOSUNNY   84  70  62 S10       29.87S HX  88
EAU CLAIRE     SUNNY     85  71  63 SW8       29.83S HX  90
MENOMONIE      MOSUNNY   85  72  64 S12       29.84R HX  91
NEW RICHMOND   CLOUDY    80  70  70 SW9       29.83S HX  83
OSCEOLA        CLOUDY    82  70  68 SW8       29.85R HX  85
$$

WIZ003>005-009-010-017-018-282300-
NORTH CENTRAL WISCONSIN

CITY           SKY/WX    TMP DP  RH WIND       PRES   REMARKS
MANITOWISH WTR PTSUNNY   82  68  63 S13G21    29.88S HX  84
ARBOR VITAE    MOSUNNY   82  69  64 S16       29.89S HX  86
WOODRUFF       MOSUNNY   82  69  64 S16       29.89S HX  86
RHINELANDER    MOSUNNY   82  66  58 S13G18    29.92F HX  84
EAGLE RIVER    PTSUNNY   79  63  57 S9G16     29.90F HX  81
LAND O LAKES   PTSUNNY   81  65  57 S12       29.91F HX  83
PHILLIPS       MOSUNNY   82  69  66 S13       29.87S HX  85
TOMAHAWK       PTSUNNY   81  68  63 S6        29.91S HX  84
MEDFORD        PTSUNNY   79  70  74 S9        29.90S HX  82
MERRILL        NOT AVBL
$$

WIZ029-030-035-036-043>047-282300-
CENTRAL WISCONSIN

CITY           SKY/WX    TMP DP  RH WIND       PRES   REMARKS
WAUSAU         PTSUNNY   83  67  58 S10       29.88F HX  85
MOSINEE        MOSUNNY   81  70  69 SE10      29.91F HX  84
MARSHFIELD       N/A     79  68  69 S9        29.90R HX  81
STEVENS POINT  PTSUNNY   82  67  62 S7        29.90S HX  84
WAUPACA        CLOUDY    85  68  55 S8        29.90F HX  89
WAUTOMA        CLOUDY    86  71  60 SE10      29.90R HX  91
WISC RAPIDS    PTSUNNY   84  68  58 S10       29.91R HX  87
CAMP DOUGLAS   PTSUNNY   84  77  79 S10       29.88R HX  94
$$

WIZ011>013-019>022-031-037>040-048>050-282300-
NORTHEAST WISCONSIN

CITY           SKY/WX    TMP DP  RH WIND       PRES   REMARKS
ANTIGO         PTSUNNY   79  67  65 S9        29.93F HX  81
SHAWANO        PTSUNNY   87  63  45 SW5       29.91S HX  88
OCONTO         PTSUNNY   82  65  57 SE9       29.90R HX  84
STURGEON BAY   PTSUNNY   79  61  53 S13       29.94S HX  80
GREEN BAY      PTSUNNY   84  68  58 SE13      29.91R HX  87
MANITOWOC      PTSUNNY   77  66  68 MISG      29.92S
APPLETON       PTSUNNY   84  63  48 S8        29.91R HX  85
CLINTONVILLE   CLOUDY    86  64  48 S10       29.90S HX  87
OSHKOSH        CLOUDY    84  67  56 SE12      29.89R HX  86
$$

WIZ032>034-041-042-053>061-282300-
SOUTHWEST WISCONSIN

CITY           SKY/WX    TMP DP  RH WIND       PRES   REMARKS
LA CROSSE      MOSUNNY   84  72  67 S9        29.86R HX  89
SPARTA         MOSUNNY   83  69  62 SW7       29.89R HX  87
VIROQUA        MOSUNNY   81  71  70 S7        29.92R HX  85
BOSCOBEL       PTSUNNY   83  72  69 S6        29.90R HX  88
PRAIRIE DU CHI PTSUNNY   81  68  64 S5        29.89S HX  84
PLATTEVILLE    PTSUNNY   82  76  79 SW9       29.93R HX  90
$$

WIZ056-057-062-063-064-067-068-282300-
SOUTH CENTRAL WISCONSIN

CITY           SKY/WX    TMP DP  RH WIND       PRES   REMARKS
REEDSBURG      PTSUNNY   84  73  67 S13       29.89R HX  90
BARABOO/DELLS  PTSUNNY   83  68  59 S13       29.91R HX  87
LONE ROCK      PTSUNNY   84  72  67 S12       29.91R HX  89
MINERAL POINT  PTSUNNY   84  72  65 SW9       29.93R HX  89
MADISON        CLOUDY    84  71  65 S15       29.90R HX  89
MIDDLETON      CLOUDY    84  71  63 SW12G18   29.91R HX  89
WATERTOWN      CLOUDY    83  74  72 S12       29.89S HX  90
MONROE         CLOUDY    82  72  69 S12       29.92R HX  87
JANESVILLE     PTSUNNY   86  72  62 SW9       29.90R HX  92
$$

WIZ051-052-058>065-066-070>072-282300-
SOUTHEAST WISCONSIN

CITY           SKY/WX    TMP DP  RH WIND       PRES   REMARKS
MILWAUKEE      CLOUDY    81  66  60 S7        29.92R HX  83
WAUKESHA       PTSUNNY   81  66  61 S10       29.93R HX  83
MILWAUKEE/TIMM SUNNY     82  63  51 S8        29.92R HX  83
RACINE         CLOUDY    81  66  60 S8        29.93R HX  83
BURLINGTON     CLOUDY    83  68  60 SE8       29.92R HX  86
KENOSHA        CLOUDY    83  69  62 S10       29.92R HX  86
FOND DU LAC    CLOUDY    83  67  58 SE9       29.91R HX  85
SHEBOYGAN      CLOUDY    78  66  66 S10       29.92R HX  80
WEST BEND      CLOUDY    81  63  54 SE7       29.92R HX  82
JUNEAU         CLOUDY    84  72  67 S14       29.92R HX  90
$$

LSZ147-162-282300-
LAKE SUPERIOR

STATION/POSITION TIME  TEMP    WIND        PRES    WAVE
                       AIR SEA DIR/SP/G            HT/PER
                 (UTC) (F)     (DEG/KT/KT) (MB)    (FT/S)
W MID LAKE BUOY  2150   68 62  140/ 12/ 12 1008.5F   1/ 3
DEVILS ISLAND    2200   79     350/  3/  3 1008.0F
SAXON HARBOR     2100   86                 1008.8S
$$

LMZ867-665-643>646-282300-
LAKE MICHIGAN

STATION/POSITION TIME  TEMP    WIND        PRES    WAVE
                       AIR SEA DIR/SP/G            HT/PER
                 (UTC) (F)     (DEG/KT/KT) (MB)    (FT/S)
CHAMBERS ISLAND  2100   81     130/  5/ 11 1012.9F
S GREEN BAY BUOY 2200   79 76  150/ 14/ 16 1013.9R
N MID LAKE BUOY  2150   72 71  170/  4/  4 1013.2F   1
NORTHPORT PIER   2100   75     140/  9/ 13 1013.5F
SISTER BAY       2129   81     160/ 12/ 16   N/A
ALGOMA LAKESHORE 2112          190/  5/  8   N/A
KEWAUNEE LAKESHO 2200   70     180/  5/  7 1012.9R
SHEBOYGAN LAKESH 2200   72     190/ 10/ 12 1013.0R
PORT WASHINGTON  2100   75     160/  6/  8 1012.9F
ATWATER BUOY     2200   74     180/  8/ 10 1014.5R
MILWAUKEE LAKESH 2200   75     160/ 11/ 12   N/A
KENOSHA   LAKESH 2200   78     200/  7/ 10 1012.5R
$$

TC  - TEMPERATURE IN CELSIUS
VSB - VISIBILITY IN STATUTE MILES
WCI - WIND CHILL INDEX
HX  - HEAT INDEX



USA.gov is the U.S. government's official web portal to all federal, state and local government web resources and services.